Lid_Strength_Index
4 4 4 4 4 4 4 4 4 4 4 4 4 5 5 4 4 4 4 4 4 4 4 4 4 3 2 4 4 -1 -2 -2 1 0 2 4 6 4 7 6 6 8 7 6 6 5 5
3 4 4 4 4 4 5 4 4 4 5 5 5 5 4 5 5 4 4 4 4 5 5 4 4 3 3 6 2 -0 1 2 3 1 3 4 5 5 6 6 7 7 6 6 6 6 6
2 3 4 4 4 4 4 4 4 4 5 5 5 5 5 4 4 4 5 5 5 5 4 4 3 2 4 5 2 -1 1 2 2 1 3 3 4 5 4 7 5 6 9 8 8 6 7
1 2 4 4 4 4 4 4 4 5 5 5 5 5 4 4 4 4 5 5 5 5 4 4 2 2 5 3 1 0 -0 0 1 0 1 2 3 3 4 4 6 8 9 13 9 6 7
2 2 3 4 4 4 4 4 4 5 5 5 5 5 5 4 4 4 4 5 4 4 3 3 1 2 5 3 4 1 1 1 1 1 1 3 2 4 5 7 12 9 14 13 11 7 8
2 2 3 4 4 4 4 4 4 4 4 4 4 4 4 4 4 4 5 5 3 3 2 1 0 3 3 4 2 3 2 2 3 3 4 5 4 6 6 8 15 13 14 11 12 10 8
2 2 2 3 4 4 4 4 4 5 5 4 4 4 4 4 4 4 5 1 3 4 2 3 3 4 3 1 1 3 2 3 3 4 6 6 7 9 8 7 9 11 13 14 10 9 10
1 2 2 2 3 4 3 4 5 5 5 5 4 4 4 4 4 5 3 2 2 1 5 2 3 3 2 1 4 4 2 4 5 6 5 6 8 6 6 6 7 8 12 14 11 8 9
1 2 2 2 3 3 3 4 5 5 5 4 4 4 4 3 4 4 1 1 -1 -0 5 4 3 3 3 2 4 4 3 4 5 6 6 7 7 6 6 7 8 8 11 12 14 10 10
2 2 2 3 3 3 3 4 5 5 4 4 3 3 4 4 5 0 1 -0 -1 -0 7 6 5 3 3 2 5 2 2 4 5 7 5 6 5 6 7 8 7 10 9 11 12 11 16
2 2 3 3 3 3 4 4 5 4 4 4 3 4 4 5 1 2 1 -1 -1 1 13 6 5 1 2 4 4 4 2 3 6 6 6 7 6 6 8 7 6 9 6 11 12 11 12
1 2 3 3 3 4 4 4 5 4 4 3 3 4 4 3 1 -0 -1 -1 1 8 13 7 5 5 5 4 4 3 4 2 3 5 5 5 4 5 6 5 6 6 7 7 9 10 17
1 2 3 3 3 4 4 4 4 4 4 4 4 5 4 0 1 -1 -1 2 9 10 6 8 7 6 6 6 6 5 6 6 7 8 8 6 6 5 4 6 6 7 8 13 14 18 15
2 2 3 3 3 4 4 4 4 4 4 4 5 5 3 0 -1 -1 1 5 11 8 8 5 6 6 7 6 6 6 6 7 5 6 8 9 10 6 5 6 7 8 8 12 16 15 14
2 2 3 3 3 4 4 4 4 4 4 4 5 0 0 -1 -1 -0 4 9 8 7 6 7 6 7 7 7 7 6 6 7 6 5 8 9 9 5 5 5 5 7 10 7 11 10 15
2 2 3 3 3 4 4 3 4 4 4 4 1 1 1 -1 -1 1 6 9 7 5 5 5 8 7 9 8 7 7 7 6 6 5 4 6 9 6 5 5 5 6 5 10 9 15 17
2 2 3 3 3 3 3 3 4 4 4 4 1 3 1 -1 -0 3 7 7 6 4 4 6 7 8 7 8 7 8 8 6 5 6 5 6 7 8 6 7 7 7 8 7 8 9 13
2 3 3 3 3 3 3 3 4 4 5 5 2 5 0 -0 5 4 5 6 7 5 4 5 5 6 7 9 8 8 9 8 4 5 7 5 7 9 8 5 5 6 7 7 10 11 9
3 3 3 3 3 3 3 3 4 4 5 1 4 3 0 1 7 6 5 5 5 5 5 5 6 5 5 7 9 7 8 5 5 5 7 5 8 10 10 7 6 7 6 6 7 7 9
3 2 3 3 3 4 3 3 4 4 4 2 3 6 3 3 3 5 6 6 6 4 5 5 5 5 6 7 6 8 7 6 5 5 5 5 7 8 12 9 7 8 7 6 7 9 9
2 3 3 3 3 4 3 3 3 4 4 2 3 4 3 6 5 4 5 5 7 7 5 4 6 6 6 8 7 8 7 6 5 5 5 5 9 8 7 7 7 7 7 7 8 7 9
3 3 3 3 3 4 4 3 3 4 4 2 4 4 3 3 4 5 6 6 6 6 6 6 6 6 6 7 7 10 7 7 8 6 6 5 10 8 9 8 7 8 7 7 7 7 7
3 3 2 3 3 3 4 3 3 3 4 2 1 1 3 6 5 5 5 6 6 5 5 4 5 5 6 6 4 4 4 5 5 7 7 7 9 10 13 8 8 10 8 7 7 6 6
3 3 3 3 4 3 4 3 2 3 4 1 1 2 4 6 5 5 5 5 6 5 6 4 4 5 4 2 3 3 4 5 5 5 5 8 11 11 11 11 14 9 6 6 7 7 6
3 2 3 2 3 4 4 3 1 3 3 2 0 2 4 6 4 5 5 5 4 4 5 5 4 3 2 3 6 8 8 7 7 5 5 6 8 11 14 15 11 9 8 7 8 8 6
4 3 2 2 3 4 4 3 1 3 3 3 1 -0 3 5 5 4 5 4 5 5 5 4 3 2 3 5 6 10 14 11 11 8 5 6 6 9 10 14 15 12 6 5 5 10 5
5 4 3 3 2 4 4 3 1 2 3 3 1 -1 2 5 3 3 4 5 3 4 5 4 4 4 3 6 8 9 11 8 10 10 9 8 8 10 10 10 13 7 5 4 10 11 5
4 4 4 4 3 4 5 3 1 2 2 2 0 -2 2 4 2 2 2 3 3 4 5 4 5 5 5 7 7 8 9 7 9 8 9 9 11 10 9 14 13 5 5 8 6 4 4
4 3 4 4 4 4 5 3 1 2 2 3 2 -1 -1 3 3 1 1 1 1 2 3 3 4 5 4 6 5 6 8 7 8 10 6 10 7 9 8 10 5 4 5 4 3 4 4